Time,TemperatureF,DewpointF,PressureIn,WindDirection,WindDirectionDegrees,WindSpeedMPH,WindSpeedGustMPH,Humidity,HourlyPrecipIn,Conditions,Clouds,dailyrainin,SoftwareType,DateUTC
2016-02-05 00:02:00,-999.9,-99.9,30.17,North,-9999,-999.9,0.7,-999,0.00,,,0.00,WeatherCatV2.23B14,2016-02-05 05:02:00,
2016-02-05 00:07:00,-999.9,-99.9,30.18,North,-9999,-999.9,0.7,-999,0.00,,,0.00,WeatherCatV2.23B14,2016-02-05 05:07:00,
2016-02-05 00:14:00,-999.9,-99.9,30.18,North,-9999,-999.9,0.7,-999,0.00,,,0.00,WeatherCatV2.23B14,2016-02-05 05:14:00,
2016-02-05 00:19:00,-999.9,-99.9,30.19,North,-9999,-999.9,0.7,-999,0.00,,,0.00,WeatherCatV2.23B14,2016-02-05 05:19:00,
2016-02-05 00:26:00,-999.9,-99.9,30.18,North,-9999,-999.9,0.7,-999,0.00,,,0.00,WeatherCatV2.23B14,2016-02-05 05:26:00,
2016-02-05 00:31:00,-999.9,-99.9,30.18,North,-9999,-999.9,0.7,-999,0.00,,,0.00,WeatherCatV2.23B14,2016-02-05 05:31:00,
2016-02-05 00:42:00,-999.9,-99.9,30.18,North,-9999,-999.9,0.7,-999,0.00,,,0.00,WeatherCatV2.23B14,2016-02-05 05:42:00,
2016-02-05 00:49:00,-999.9,-99.9,30.17,North,-9999,-999.9,0.7,-999,0.00,,,0.00,WeatherCatV2.23B14,2016-02-05 05:49:00,
2016-02-05 00:54:00,-999.9,-99.9,30.18,North,-9999,-999.9,0.7,-999,0.00,,,0.00,WeatherCatV2.23B14,2016-02-05 05:54:00,
2016-02-05 01:01:00,-999.9,-99.9,30.19,North,-9999,-999.9,0.7,-999,0.00,,,0.00,WeatherCatV2.23B14,2016-02-05 06:01:00,
2016-02-05 01:06:00,-999.9,-99.9,30.19,North,-9999,-999.9,0.7,-999,0.00,,,0.00,WeatherCatV2.23B14,2016-02-05 06:06:00,
2016-02-05 01:13:00,-999.9,-99.9,30.20,North,-9999,-999.9,0.7,-999,0.00,,,0.00,WeatherCatV2.23B14,2016-02-05 06:13:00,
2016-02-05 01:18:00,-999.9,-99.9,30.20,North,-9999,-999.9,0.7,-999,0.00,,,0.00,WeatherCatV2.23B14,2016-02-05 06:18:00,
2016-02-05 01:24:00,-999.9,-99.9,30.20,North,-9999,-999.9,0.7,-999,0.00,,,0.00,WeatherCatV2.23B14,2016-02-05 06:24:00,
2016-02-05 01:29:00,49.5,40.5,30.20,North,0,4.5,4.5,71,0.00,,,0.00,WeatherCatV2.23B14,2016-02-05 06:29:00,
2016-02-05 01:34:00,49.5,40.5,30.21,NW,315,2.2,2.2,71,0.00,,,0.00,WeatherCatV2.23B14,2016-02-05 06:34:00,
2016-02-05 01:40:00,49.3,39.5,30.21,NW,315,3.1,3.1,69,0.00,,,0.00,WeatherCatV2.23B14,2016-02-05 06:40:00,
2016-02-05 01:45:00,49.3,39.5,30.22,NW,315,3.1,3.1,69,0.00,,,0.00,WeatherCatV2.23B14,2016-02-05 06:45:00,
2016-02-05 01:52:00,-999.9,-99.9,30.21,North,-9999,-999.9,3.1,-999,0.00,,,0.00,WeatherCatV2.23B14,2016-02-05 06:52:00,
2016-02-05 01:57:00,48.7,37.9,30.21,West,270,2.2,2.2,66,0.00,,,0.00,WeatherCatV2.23B14,2016-02-05 06:57:00,
2016-02-05 02:02:00,48.7,37.9,30.20,West,270,2.2,2.2,66,0.00,,,0.00,WeatherCatV2.23B14,2016-02-05 07:02:00,
2016-02-05 02:07:00,48.7,37.9,30.20,West,270,2.2,2.2,66,0.00,,,0.00,WeatherCatV2.23B14,2016-02-05 07:07:00,
2016-02-05 02:12:00,48.2,36.2,30.20,NW,315,3.8,3.8,63,0.00,,,0.00,WeatherCatV2.23B14,2016-02-05 07:12:00,
2016-02-05 02:17:00,48.2,36.2,30.20,NW,315,3.8,3.8,63,0.00,,,0.00,WeatherCatV2.23B14,2016-02-05 07:17:00,
2016-02-05 02:22:00,48.2,35.8,30.20,SW,225,2.2,2.2,62,0.00,,,0.00,WeatherCatV2.23B14,2016-02-05 07:22:00,
2016-02-05 02:28:00,47.8,34.6,30.21,SSE,157,3.8,3.8,60,0.00,,,0.00,WeatherCatV2.23B14,2016-02-05 07:28:00,
2016-02-05 02:33:00,47.8,34.6,30.21,SSE,157,3.8,3.8,60,0.00,,,0.00,WeatherCatV2.23B14,2016-02-05 07:33:00,
2016-02-05 02:38:00,47.7,34.0,30.20,NW,315,2.2,2.2,59,0.00,,,0.00,WeatherCatV2.23B14,2016-02-05 07:38:00,
2016-02-05 02:43:00,47.5,33.9,30.21,SW,225,3.1,3.1,59,0.00,,,0.00,WeatherCatV2.23B14,2016-02-05 07:43:00,
2016-02-05 02:49:00,47.3,33.3,30.22,NW,315,2.2,3.1,58,0.00,,,0.00,WeatherCatV2.23B14,2016-02-05 07:49:00,
2016-02-05 02:54:00,47.1,32.7,30.21,NE,45,5.4,5.4,57,0.00,,,0.00,WeatherCatV2.23B14,2016-02-05 07:54:00,
2016-02-05 02:59:00,46.8,32.3,30.21,West,270,3.8,3.8,57,0.00,,,0.00,WeatherCatV2.23B14,2016-02-05 07:59:00,
2016-02-05 03:05:00,46.8,32.3,30.22,West,270,3.8,3.8,57,0.00,,,0.00,WeatherCatV2.23B14,2016-02-05 08:05:00,
2016-02-05 03:10:00,46.6,30.4,30.22,East,90,3.8,6.0,53,0.00,,,0.00,WeatherCatV2.23B14,2016-02-05 08:10:00,
2016-02-05 03:15:00,46.4,30.7,30.22,NW,315,4.5,4.5,54,0.00,,,0.00,WeatherCatV2.23B14,2016-02-05 08:15:00,
2016-02-05 03:20:00,46.2,30.5,30.22,West,270,2.2,2.2,54,0.00,,,0.00,WeatherCatV2.23B14,2016-02-05 08:20:00,
2016-02-05 03:26:00,46.0,30.3,30.22,West,270,1.6,1.6,54,0.00,,,0.00,WeatherCatV2.23B14,2016-02-05 08:26:00,
2016-02-05 03:31:00,45.7,30.0,30.23,North,0,4.5,4.5,54,0.00,,,0.00,WeatherCatV2.23B14,2016-02-05 08:31:00,
2016-02-05 03:36:00,45.7,29.1,30.23,North,0,4.5,4.5,52,0.00,,,0.00,WeatherCatV2.23B14,2016-02-05 08:36:00,
2016-02-05 03:41:00,45.7,28.1,30.23,NE,45,6.0,6.0,50,0.00,,,0.00,WeatherCatV2.23B14,2016-02-05 08:41:00,
2016-02-05 03:47:00,45.5,27.0,30.23,West,270,3.1,3.8,48,0.00,,,0.00,WeatherCatV2.23B14,2016-02-05 08:47:00,
2016-02-05 03:52:00,45.3,26.8,30.24,SW,225,3.1,3.8,48,0.00,,,0.00,WeatherCatV2.23B14,2016-02-05 08:52:00,
2016-02-05 03:57:00,45.1,26.6,30.24,North,0,3.1,3.1,48,0.00,,,0.00,WeatherCatV2.23B14,2016-02-05 08:57:00,
2016-02-05 04:02:00,45.1,27.1,30.24,South,180,3.8,3.8,49,0.00,,,0.00,WeatherCatV2.23B14,2016-02-05 09:02:00,
2016-02-05 04:07:00,45.1,27.1,30.24,South,180,3.8,3.8,49,0.00,,,0.00,WeatherCatV2.23B14,2016-02-05 09:07:00,
2016-02-05 04:12:00,44.4,26.0,30.24,NW,315,3.8,3.8,48,0.00,,,0.00,WeatherCatV2.23B14,2016-02-05 09:12:00,
2016-02-05 04:18:00,44.4,26.0,30.24,NW,315,2.2,2.2,48,0.00,,,0.00,WeatherCatV2.23B14,2016-02-05 09:18:00,
2016-02-05 04:23:00,43.9,26.0,30.24,SW,225,1.6,1.6,49,0.00,,,0.00,WeatherCatV2.23B14,2016-02-05 09:23:00,
2016-02-05 04:28:00,43.7,26.3,30.25,West,270,1.6,1.6,50,0.00,,,0.00,WeatherCatV2.23B14,2016-02-05 09:28:00,
2016-02-05 04:33:00,43.3,26.4,30.25,West,270,1.6,1.6,51,0.00,,,0.00,WeatherCatV2.23B14,2016-02-05 09:33:00,
2016-02-05 04:38:00,43.0,27.0,30.25,West,270,1.6,4.5,53,0.00,,,0.00,WeatherCatV2.23B14,2016-02-05 09:38:00,
2016-02-05 04:43:00,42.6,27.1,30.25,NE,45,2.2,2.2,54,0.00,,,0.00,WeatherCatV2.23B14,2016-02-05 09:43:00,
2016-02-05 04:49:00,42.4,27.4,30.26,West,270,1.6,1.6,55,0.00,,,0.00,WeatherCatV2.23B14,2016-02-05 09:49:00,
2016-02-05 04:54:00,42.3,27.3,30.26,West,270,1.6,6.0,55,0.00,,,0.00,WeatherCatV2.23B14,2016-02-05 09:54:00,
2016-02-05 04:59:00,42.3,27.7,30.26,NW,315,2.2,2.2,56,0.00,,,0.00,WeatherCatV2.23B14,2016-02-05 09:59:00,
2016-02-05 05:04:00,42.3,27.7,30.26,NW,315,1.6,1.6,56,0.00,,,0.00,WeatherCatV2.23B14,2016-02-05 10:04:00,
2016-02-05 05:09:00,41.9,26.9,30.27,NW,315,1.6,1.6,55,0.00,,,0.00,WeatherCatV2.23B14,2016-02-05 10:09:00,
2016-02-05 05:14:00,41.7,27.2,30.27,West,270,0.0,0.0,56,0.00,,,0.00,WeatherCatV2.23B14,2016-02-05 10:14:00,
2016-02-05 05:20:00,41.4,26.9,30.27,West,270,0.0,0.0,56,0.00,,,0.00,WeatherCatV2.23B14,2016-02-05 10:20:00,
2016-02-05 05:25:00,41.0,27.0,30.27,NW,315,0.7,1.6,57,0.00,,,0.00,WeatherCatV2.23B14,2016-02-05 10:25:00,
2016-02-05 05:30:00,40.8,27.2,30.27,NE,45,0.7,0.7,58,0.00,,,0.00,WeatherCatV2.23B14,2016-02-05 10:30:00,
2016-02-05 05:35:00,40.5,26.9,30.28,NW,315,1.6,1.6,58,0.00,,,0.00,WeatherCatV2.23B14,2016-02-05 10:35:00,
2016-02-05 05:41:00,40.3,27.1,30.28,NW,315,0.7,0.7,59,0.00,,,0.00,WeatherCatV2.23B14,2016-02-05 10:41:00,
2016-02-05 05:46:00,40.1,27.3,30.28,East,90,3.1,3.1,60,0.00,,,0.00,WeatherCatV2.23B14,2016-02-05 10:46:00,
2016-02-05 05:51:00,40.1,27.3,30.28,West,270,3.1,3.1,60,0.00,,,0.00,WeatherCatV2.23B14,2016-02-05 10:51:00,
2016-02-05 05:56:00,40.5,27.3,30.28,NW,315,3.1,3.1,59,0.00,,,0.00,WeatherCatV2.23B14,2016-02-05 10:56:00,
2016-02-05 06:02:00,40.5,27.3,30.28,West,270,2.2,2.2,59,0.00,,,0.00,WeatherCatV2.23B14,2016-02-05 11:02:00,
2016-02-05 06:12:00,40.6,26.2,30.29,NW,315,3.1,5.4,56,0.00,,,0.00,WeatherCatV2.23B14,2016-02-05 11:12:00,
2016-02-05 06:17:00,40.6,26.2,30.29,SW,225,1.6,1.6,56,0.00,,,0.00,WeatherCatV2.23B14,2016-02-05 11:17:00,
2016-02-05 06:22:00,40.5,26.0,30.29,East,90,3.8,3.8,56,0.00,,,0.00,WeatherCatV2.23B14,2016-02-05 11:22:00,
2016-02-05 06:33:00,40.1,25.7,30.29,West,270,1.6,1.6,56,0.00,,,0.00,WeatherCatV2.23B14,2016-02-05 11:33:00,
2016-02-05 06:38:00,39.7,25.8,30.30,West,270,2.2,3.1,57,0.00,,,0.00,WeatherCatV2.23B14,2016-02-05 11:38:00,
2016-02-05 06:43:00,39.6,25.6,30.30,NW,315,2.2,2.2,57,0.00,,,0.00,WeatherCatV2.23B14,2016-02-05 11:43:00,
2016-02-05 06:48:00,39.6,26.0,30.30,West,270,1.6,3.1,58,0.00,,,0.00,WeatherCatV2.23B14,2016-02-05 11:48:00,
2016-02-05 06:54:00,39.6,25.6,30.30,West,270,3.1,3.1,57,0.00,,,0.00,WeatherCatV2.23B14,2016-02-05 11:54:00,
2016-02-05 07:04:00,39.4,25.4,30.30,South,180,4.5,4.5,57,0.00,,,0.00,WeatherCatV2.23B14,2016-02-05 12:04:00,
2016-02-05 07:09:00,39.6,24.7,30.30,SW,225,2.2,4.5,55,0.00,,,0.00,WeatherCatV2.23B14,2016-02-05 12:09:00,
2016-02-05 07:14:00,39.6,24.3,30.30,West,270,2.2,3.1,54,0.00,,,0.00,WeatherCatV2.23B14,2016-02-05 12:14:00,
2016-02-05 07:19:00,39.4,24.1,30.31,SSW,202,1.6,3.8,54,0.00,,,0.00,WeatherCatV2.23B14,2016-02-05 12:19:00,
2016-02-05 07:24:00,39.2,24.0,30.31,North,0,2.2,3.8,54,0.00,,,0.00,WeatherCatV2.23B14,2016-02-05 12:24:00,
2016-02-05 07:29:00,39.2,24.0,30.31,SW,225,3.1,3.8,54,0.00,,,0.00,WeatherCatV2.23B14,2016-02-05 12:29:00,
2016-02-05 07:35:00,39.2,24.0,30.32,North,0,3.1,3.1,54,0.00,,,0.00,WeatherCatV2.23B14,2016-02-05 12:35:00,
2016-02-05 07:40:00,39.2,23.5,30.32,SW,225,3.1,3.1,53,0.00,,,0.00,WeatherCatV2.23B14,2016-02-05 12:40:00,
2016-02-05 07:45:00,39.2,23.5,30.32,NW,315,3.1,3.1,53,0.00,,,0.00,WeatherCatV2.23B14,2016-02-05 12:45:00,
2016-02-05 07:50:00,39.4,23.2,30.32,NW,315,3.1,3.1,52,0.00,,,0.00,WeatherCatV2.23B14,2016-02-05 12:50:00,
2016-02-05 07:56:00,39.4,23.2,30.33,North,0,3.1,3.1,52,0.00,,,0.00,WeatherCatV2.23B14,2016-02-05 12:56:00,
2016-02-05 08:01:00,39.6,23.4,30.32,West,270,2.2,2.2,52,0.00,,,0.00,WeatherCatV2.23B14,2016-02-05 13:01:00,
2016-02-05 08:06:00,39.6,23.4,30.33,West,270,2.2,2.2,52,0.00,,,0.00,WeatherCatV2.23B14,2016-02-05 13:06:00,
2016-02-05 08:11:00,39.7,23.1,30.33,NW,315,3.1,6.0,51,0.00,,,0.00,WeatherCatV2.23B14,2016-02-05 13:11:00,
2016-02-05 08:16:00,39.9,22.8,30.33,NE,45,2.2,3.1,50,0.00,,,0.00,WeatherCatV2.23B14,2016-02-05 13:16:00,
2016-02-05 08:21:00,40.1,23.0,30.33,West,270,3.1,3.1,50,0.00,,,0.00,WeatherCatV2.23B14,2016-02-05 13:21:00,
2016-02-05 08:26:00,40.5,21.8,30.34,NW,315,3.8,4.5,47,0.00,,,0.00,WeatherCatV2.23B14,2016-02-05 13:26:00,
2016-02-05 08:31:00,40.8,21.1,30.34,NW,315,3.8,3.8,45,0.00,,,0.00,WeatherCatV2.23B14,2016-02-05 13:31:00,
2016-02-05 08:37:00,41.2,21.5,30.34,SW,225,3.8,3.8,45,0.00,,,0.00,WeatherCatV2.23B14,2016-02-05 13:37:00,
2016-02-05 08:42:00,41.5,20.7,30.34,NW,315,3.1,6.9,43,0.00,,,0.00,WeatherCatV2.23B14,2016-02-05 13:42:00,
2016-02-05 08:47:00,41.7,20.3,30.34,West,270,4.5,4.5,42,0.00,,,0.00,WeatherCatV2.23B14,2016-02-05 13:47:00,
2016-02-05 08:52:00,41.9,19.4,30.34,SW,225,4.5,4.5,40,0.00,,,0.00,WeatherCatV2.23B14,2016-02-05 13:52:00,
2016-02-05 08:58:00,42.3,19.7,30.34,West,270,3.8,3.8,40,0.00,,,0.00,WeatherCatV2.23B14,2016-02-05 13:58:00,
2016-02-05 09:03:00,42.3,19.1,30.34,NW,315,4.5,4.5,39,0.00,,,0.00,WeatherCatV2.23B14,2016-02-05 14:03:00,
2016-02-05 09:08:00,43.0,17.9,30.34,NW,315,4.5,4.5,36,0.00,,,0.00,WeatherCatV2.23B14,2016-02-05 14:08:00,
2016-02-05 09:18:00,43.7,17.2,30.34,SW,225,3.8,4.5,34,0.00,,,0.00,WeatherCatV2.23B14,2016-02-05 14:18:00,
2016-02-05 09:23:00,44.2,19.0,30.34,West,270,3.1,3.1,36,0.00,,,0.00,WeatherCatV2.23B14,2016-02-05 14:23:00,
2016-02-05 09:28:00,44.6,18.0,30.34,North,0,7.6,7.6,34,0.00,,,0.00,WeatherCatV2.23B14,2016-02-05 14:28:00,
2016-02-05 09:34:00,45.1,17.1,30.34,North,0,3.8,3.8,32,0.00,,,0.00,WeatherCatV2.23B14,2016-02-05 14:34:00,
2016-02-05 09:39:00,45.7,15.3,30.34,NE,45,2.2,6.0,29,0.00,,,0.00,WeatherCatV2.23B14,2016-02-05 14:39:00,
2016-02-05 09:44:00,46.6,16.8,30.34,NW,315,3.1,3.1,30,0.00,,,0.00,WeatherCatV2.23B14,2016-02-05 14:44:00,
2016-02-05 09:49:00,47.1,14.0,30.35,North,0,3.1,6.0,26,0.00,,,0.00,WeatherCatV2.23B14,2016-02-05 14:49:00,
2016-02-05 09:55:00,47.7,10.7,30.34,NE,45,3.8,5.4,22,0.00,,,0.00,WeatherCatV2.23B14,2016-02-05 14:55:00,
2016-02-05 10:00:00,48.0,13.0,30.35,North,0,2.2,2.2,24,0.00,,,0.00,WeatherCatV2.23B14,2016-02-05 15:00:00,
2016-02-05 10:05:00,48.0,13.0,30.34,North,0,2.2,2.2,24,0.00,,,0.00,WeatherCatV2.23B14,2016-02-05 15:05:00,
2016-02-05 10:10:00,49.1,10.9,30.34,NE,45,3.8,3.8,21,0.00,,,0.00,WeatherCatV2.23B14,2016-02-05 15:10:00,
2016-02-05 10:15:00,49.3,6.3,30.34,NE,45,3.8,5.4,17,0.00,,,0.00,WeatherCatV2.23B14,2016-02-05 15:15:00,
2016-02-05 10:20:00,49.6,9.1,30.34,NW,315,3.8,3.8,19,0.00,,,0.00,WeatherCatV2.23B14,2016-02-05 15:20:00,
2016-02-05 10:25:00,50.0,4.2,30.35,SSW,202,6.0,6.0,15,0.00,,,0.00,WeatherCatV2.23B14,2016-02-05 15:25:00,
2016-02-05 10:30:00,50.2,4.3,30.35,North,0,3.1,3.8,15,0.00,,,0.00,WeatherCatV2.23B14,2016-02-05 15:30:00,
2016-02-05 10:36:00,50.9,8.9,30.35,NW,315,3.1,3.1,18,0.00,,,0.00,WeatherCatV2.23B14,2016-02-05 15:36:00,
2016-02-05 10:41:00,51.1,3.6,30.34,SW,225,3.8,3.8,14,0.00,,,0.00,WeatherCatV2.23B14,2016-02-05 15:41:00,
2016-02-05 10:46:00,51.4,0.6,30.34,WSW,247,3.8,6.0,12,0.00,,,0.00,WeatherCatV2.23B14,2016-02-05 15:46:00,
2016-02-05 10:57:00,51.8,-3.0,30.34,South,180,6.9,6.9,10,0.00,,,0.00,WeatherCatV2.23B14,2016-02-05 15:57:00,
2016-02-05 11:02:00,52.0,-2.9,30.35,NW,315,6.0,6.0,10,0.00,,,0.00,WeatherCatV2.23B14,2016-02-05 16:02:00,
2016-02-05 11:07:00,52.2,1.1,30.34,NE,45,3.8,3.8,12,0.00,,,0.00,WeatherCatV2.23B14,2016-02-05 16:07:00,
2016-02-05 11:12:00,52.5,-2.5,30.34,NW,315,3.1,4.5,10,0.00,,,0.00,WeatherCatV2.23B14,2016-02-05 16:12:00,
2016-02-05 11:17:00,52.7,-2.3,30.34,NW,315,4.5,4.5,10,0.00,,,0.00,WeatherCatV2.23B14,2016-02-05 16:17:00,
2016-02-05 11:23:00,52.7,-99.9,30.34,West,270,3.1,3.1,-999,0.00,,,0.00,WeatherCatV2.23B14,2016-02-05 16:23:00,
2016-02-05 11:28:00,52.9,-99.9,30.34,SW,225,4.5,4.5,-999,0.00,,,0.00,WeatherCatV2.23B14,2016-02-05 16:28:00,
2016-02-05 11:33:00,53.2,-99.9,30.34,East,90,4.5,4.5,-999,0.00,,,0.00,WeatherCatV2.23B14,2016-02-05 16:33:00,
2016-02-05 11:38:00,53.4,-99.9,30.34,North,0,3.8,3.8,-999,0.00,,,0.00,WeatherCatV2.23B14,2016-02-05 16:38:00,
2016-02-05 11:43:00,53.8,-99.9,30.34,North,0,3.1,4.5,-999,0.00,,,0.00,WeatherCatV2.23B14,2016-02-05 16:43:00,
2016-02-05 11:48:00,54.3,-99.9,30.34,NW,315,2.2,2.2,-999,0.00,,,0.00,WeatherCatV2.23B14,2016-02-05 16:48:00,
2016-02-05 11:53:00,54.9,-99.9,30.33,NE,45,2.2,4.5,-999,0.00,,,0.00,WeatherCatV2.23B14,2016-02-05 16:53:00,
2016-02-05 11:58:00,55.0,-99.9,30.33,NE,45,3.1,3.8,-999,0.00,,,0.00,WeatherCatV2.23B14,2016-02-05 16:58:00,
2016-02-05 12:03:00,55.0,-99.9,30.33,West,270,2.2,2.2,-999,0.00,,,0.00,WeatherCatV2.23B14,2016-02-05 17:03:00,
2016-02-05 12:08:00,55.4,-99.9,30.33,NW,315,3.8,3.8,-999,0.00,,,0.00,WeatherCatV2.23B14,2016-02-05 17:08:00,
2016-02-05 12:13:00,55.4,-99.9,30.33,West,270,4.5,4.5,-999,0.00,,,0.00,WeatherCatV2.23B14,2016-02-05 17:13:00,
2016-02-05 12:18:00,55.9,-99.9,30.32,SW,225,3.1,3.1,-999,0.00,,,0.00,WeatherCatV2.23B14,2016-02-05 17:18:00,
2016-02-05 12:23:00,56.1,-99.9,30.33,West,270,3.1,6.0,-999,0.00,,,0.00,WeatherCatV2.23B14,2016-02-05 17:23:00,
2016-02-05 12:28:00,55.9,-99.9,30.32,NW,315,3.1,3.1,-999,0.00,,,0.00,WeatherCatV2.23B14,2016-02-05 17:28:00,
2016-02-05 12:38:00,56.7,-99.9,30.31,South,180,4.5,4.5,-999,0.00,,,0.00,WeatherCatV2.23B14,2016-02-05 17:38:00,
2016-02-05 12:43:00,56.5,-99.9,30.31,South,180,3.1,3.1,-999,0.00,,,0.00,WeatherCatV2.23B14,2016-02-05 17:43:00,
2016-02-05 12:48:00,56.7,-99.9,30.31,West,270,3.1,3.8,-999,0.00,,,0.00,WeatherCatV2.23B14,2016-02-05 17:48:00,
2016-02-05 12:53:00,56.7,-99.9,30.31,West,270,3.1,3.8,-999,0.00,,,0.00,WeatherCatV2.23B14,2016-02-05 17:53:00,
2016-02-05 12:58:00,56.8,-99.9,30.31,East,90,4.5,4.5,-999,0.00,,,0.00,WeatherCatV2.23B14,2016-02-05 17:58:00,
2016-02-05 13:03:00,56.7,-99.9,30.30,South,180,3.8,3.8,-999,0.00,,,0.00,WeatherCatV2.23B14,2016-02-05 18:03:00,
2016-02-05 13:08:00,57.0,-99.9,30.30,SW,225,3.8,3.8,-999,0.00,,,0.00,WeatherCatV2.23B14,2016-02-05 18:08:00,
2016-02-05 13:13:00,57.0,-99.9,30.30,NW,315,2.2,2.2,-999,0.00,,,0.00,WeatherCatV2.23B14,2016-02-05 18:13:00,
2016-02-05 13:18:00,57.2,-99.9,30.30,North,0,3.8,3.8,-999,0.00,,,0.00,WeatherCatV2.23B14,2016-02-05 18:18:00,
2016-02-05 13:23:00,57.0,-99.9,30.30,North,0,3.8,3.8,-999,0.00,,,0.00,WeatherCatV2.23B14,2016-02-05 18:23:00,
2016-02-05 13:33:00,57.4,-99.9,30.29,SW,225,3.1,3.1,-999,0.00,,,0.00,WeatherCatV2.23B14,2016-02-05 18:33:00,
2016-02-05 13:38:00,57.6,-99.9,30.29,West,270,3.1,3.1,-999,0.00,,,0.00,WeatherCatV2.23B14,2016-02-05 18:38:00,
2016-02-05 13:43:00,57.7,-99.9,30.29,NE,45,3.8,3.8,-999,0.00,,,0.00,WeatherCatV2.23B14,2016-02-05 18:43:00,
2016-02-05 13:48:00,57.9,-99.9,30.29,East,90,4.5,4.5,-999,0.00,,,0.00,WeatherCatV2.23B14,2016-02-05 18:48:00,
2016-02-05 13:58:00,58.3,-99.9,30.28,North,0,3.1,3.1,-999,0.00,,,0.00,WeatherCatV2.23B14,2016-02-05 18:58:00,
2016-02-05 14:08:00,59.4,-99.9,30.28,North,0,1.6,1.6,-999,0.00,,,0.00,WeatherCatV2.23B14,2016-02-05 19:08:00,
2016-02-05 14:18:00,59.9,-99.9,30.28,NE,45,5.4,5.4,-999,0.00,,,0.00,WeatherCatV2.23B14,2016-02-05 19:18:00,
2016-02-05 14:23:00,59.4,-99.9,30.28,West,270,4.5,4.5,-999,0.00,,,0.00,WeatherCatV2.23B14,2016-02-05 19:23:00,
2016-02-05 14:28:00,59.4,-99.9,30.28,NE,45,3.8,3.8,-999,0.00,,,0.00,WeatherCatV2.23B14,2016-02-05 19:28:00,
2016-02-05 14:33:00,59.7,-99.9,30.28,NW,315,3.1,3.1,-999,0.00,,,0.00,WeatherCatV2.23B14,2016-02-05 19:33:00,
2016-02-05 14:38:00,59.9,-99.9,30.28,SW,225,3.1,3.1,-999,0.00,,,0.00,WeatherCatV2.23B14,2016-02-05 19:38:00,
2016-02-05 14:43:00,60.4,-99.9,30.28,NE,45,6.9,6.9,-999,0.00,,,0.00,WeatherCatV2.23B14,2016-02-05 19:43:00,
2016-02-05 14:53:00,59.7,-99.9,30.28,North,0,8.3,9.2,-999,0.00,,,0.00,WeatherCatV2.23B14,2016-02-05 19:53:00,
2016-02-05 14:58:00,60.1,-99.9,30.28,East,90,2.2,2.2,-999,0.00,,,0.00,WeatherCatV2.23B14,2016-02-05 19:58:00,
2016-02-05 15:03:00,59.9,-99.9,30.28,East,90,3.8,3.8,-999,0.00,,,0.00,WeatherCatV2.23B14,2016-02-05 20:03:00,
2016-02-05 15:08:00,60.1,-99.9,30.28,North,0,3.1,3.1,-999,0.00,,,0.00,WeatherCatV2.23B14,2016-02-05 20:08:00,
2016-02-05 15:13:00,59.9,-99.9,30.28,NE,45,3.1,12.1,-999,0.00,,,0.00,WeatherCatV2.23B14,2016-02-05 20:13:00,
2016-02-05 15:18:00,59.9,-99.9,30.28,East,90,7.6,7.6,-999,0.00,,,0.00,WeatherCatV2.23B14,2016-02-05 20:18:00,
2016-02-05 15:23:00,59.7,-99.9,30.28,North,0,3.1,3.1,-999,0.00,,,0.00,WeatherCatV2.23B14,2016-02-05 20:23:00,
2016-02-05 15:28:00,60.1,-99.9,30.28,SE,135,3.8,3.8,-999,0.00,,,0.00,WeatherCatV2.23B14,2016-02-05 20:28:00,
2016-02-05 15:38:00,59.7,-99.9,30.28,North,0,3.8,3.8,-999,0.00,,,0.00,WeatherCatV2.23B14,2016-02-05 20:38:00,
2016-02-05 15:43:00,59.7,-99.9,30.28,NW,315,3.8,3.8,-999,0.00,,,0.00,WeatherCatV2.23B14,2016-02-05 20:43:00,
2016-02-05 15:48:00,59.5,-99.9,30.28,SE,135,8.3,8.3,-999,0.00,,,0.00,WeatherCatV2.23B14,2016-02-05 20:48:00,
2016-02-05 15:53:00,59.4,-99.9,30.28,ENE,67,6.0,6.0,-999,0.00,,,0.00,WeatherCatV2.23B14,2016-02-05 20:53:00,
2016-02-05 15:58:00,59.2,-99.9,30.28,NE,45,2.2,2.2,-999,0.00,,,0.00,WeatherCatV2.23B14,2016-02-05 20:58:00,
2016-02-05 16:03:00,59.2,-99.9,30.28,North,0,3.1,3.1,-999,0.00,,,0.00,WeatherCatV2.23B14,2016-02-05 21:03:00,
2016-02-05 16:08:00,59.0,-99.9,30.29,NE,45,3.8,3.8,-999,0.00,,,0.00,WeatherCatV2.23B14,2016-02-05 21:08:00,
2016-02-05 16:13:00,58.5,-99.9,30.29,NW,315,3.8,7.6,-999,0.00,,,0.00,WeatherCatV2.23B14,2016-02-05 21:13:00,
2016-02-05 16:18:00,57.9,-99.9,30.29,North,0,2.2,6.0,-999,0.00,,,0.00,WeatherCatV2.23B14,2016-02-05 21:18:00,
2016-02-05 16:28:00,57.2,-99.9,30.29,NW,315,3.1,3.1,-999,0.00,,,0.00,WeatherCatV2.23B14,2016-02-05 21:28:00,
2016-02-05 16:33:00,57.0,-99.9,30.30,West,270,3.1,3.8,-999,0.00,,,0.00,WeatherCatV2.23B14,2016-02-05 21:33:00,
2016-02-05 16:38:00,56.7,-99.9,30.29,NE,45,3.1,3.1,-999,0.00,,,0.00,WeatherCatV2.23B14,2016-02-05 21:38:00,
2016-02-05 16:43:00,56.3,-99.9,30.30,East,90,4.5,5.4,-999,0.00,,,0.00,WeatherCatV2.23B14,2016-02-05 21:43:00,
2016-02-05 16:48:00,55.9,-99.9,30.30,North,0,3.1,3.1,-999,0.00,,,0.00,WeatherCatV2.23B14,2016-02-05 21:48:00,
2016-02-05 16:54:00,55.8,-99.9,30.30,SE,135,3.1,9.2,-999,0.00,,,0.00,WeatherCatV2.23B14,2016-02-05 21:54:00,
2016-02-05 16:59:00,55.4,-0.2,30.30,NE,45,3.1,3.1,10,0.00,,,0.00,WeatherCatV2.23B14,2016-02-05 21:59:00,
2016-02-05 17:04:00,55.4,1.8,30.30,East,90,3.1,3.1,11,0.00,,,0.00,WeatherCatV2.23B14,2016-02-05 22:04:00,
2016-02-05 17:09:00,54.9,6.6,30.31,North,0,3.1,3.1,14,0.00,,,0.00,WeatherCatV2.23B14,2016-02-05 22:09:00,
2016-02-05 17:14:00,54.7,6.4,30.31,North,0,3.1,3.1,14,0.00,,,0.00,WeatherCatV2.23B14,2016-02-05 22:14:00,
2016-02-05 17:19:00,54.3,7.7,30.31,East,90,2.2,2.2,15,0.00,,,0.00,WeatherCatV2.23B14,2016-02-05 22:19:00,
2016-02-05 17:24:00,54.1,10.3,30.31,NE,45,3.1,3.8,17,0.00,,,0.00,WeatherCatV2.23B14,2016-02-05 22:24:00,
2016-02-05 17:29:00,54.0,11.4,30.31,SE,135,3.8,6.0,18,0.00,,,0.00,WeatherCatV2.23B14,2016-02-05 22:29:00,
2016-02-05 17:34:00,53.6,13.5,30.31,NW,315,1.6,2.2,20,0.00,,,0.00,WeatherCatV2.23B14,2016-02-05 22:34:00,
2016-02-05 17:39:00,53.4,16.6,30.31,North,0,1.6,3.8,23,0.00,,,0.00,WeatherCatV2.23B14,2016-02-05 22:39:00,
2016-02-05 17:44:00,53.2,17.4,30.31,South,180,0.7,1.6,24,0.00,,,0.00,WeatherCatV2.23B14,2016-02-05 22:44:00,
2016-02-05 17:54:00,52.5,19.5,30.32,East,90,1.6,2.2,27,0.00,,,0.00,WeatherCatV2.23B14,2016-02-05 22:54:00,
2016-02-05 17:59:00,52.2,20.9,30.32,North,0,1.6,1.6,29,0.00,,,0.00,WeatherCatV2.23B14,2016-02-05 22:59:00,
2016-02-05 18:04:00,52.2,20.9,30.32,NW,315,1.6,1.6,29,0.00,,,0.00,WeatherCatV2.23B14,2016-02-05 23:04:00,
2016-02-05 18:10:00,51.4,21.8,30.32,NE,45,1.6,3.1,31,0.00,,,0.00,WeatherCatV2.23B14,2016-02-05 23:10:00,
2016-02-05 18:15:00,51.1,22.3,30.33,SE,135,2.2,2.2,32,0.00,,,0.00,WeatherCatV2.23B14,2016-02-05 23:15:00,
2016-02-05 18:20:00,50.9,22.1,30.33,North,0,0.7,0.7,32,0.00,,,0.00,WeatherCatV2.23B14,2016-02-05 23:20:00,
2016-02-05 18:25:00,50.4,23.1,30.33,NW,315,1.6,2.2,34,0.00,,,0.00,WeatherCatV2.23B14,2016-02-05 23:25:00,
2016-02-05 18:31:00,50.0,23.4,30.33,NE,45,0.0,0.0,35,0.00,,,0.00,WeatherCatV2.23B14,2016-02-05 23:31:00,
2016-02-05 18:41:00,49.1,24.0,30.34,NE,45,0.0,0.0,37,0.00,,,0.00,WeatherCatV2.23B14,2016-02-05 23:41:00,
2016-02-05 18:45:00,48.6,24.1,30.34,ENE,59,0.0,0.7,38,0.00,,,0.00,WeatherCatV2.23B14,2016-02-05 23:45:00,
2016-02-05 18:46:00,48.4,24.0,30.34,East,90,0.0,0.7,38,0.00,,,0.00,WeatherCatV2.23B14,2016-02-05 23:46:00,
2016-02-05 18:50:00,48.2,24.4,30.34,ENE,72,0.0,0.0,39,0.00,,,0.00,WeatherCatV2.23B14,2016-02-05 23:50:00,
2016-02-05 19:00:00,37.2,22.5,30.25,West,270,1.6,3.8,55,0.00,,,0.00,WeatherCatV2.23B14,2016-02-06 00:00:00,
2016-02-05 19:05:00,37.2,22.5,30.25,West,270,1.6,3.8,55,0.00,,,0.00,WeatherCatV2.23B14,2016-02-06 00:05:00,
2016-02-05 19:10:00,37.2,22.5,30.25,West,270,1.6,3.8,55,0.00,,,0.00,WeatherCatV2.23B14,2016-02-06 00:10:00,
2016-02-05 19:15:00,37.2,22.5,30.25,West,270,1.6,3.8,55,0.00,,,0.00,WeatherCatV2.23B14,2016-02-06 00:15:00,
2016-02-05 19:20:00,37.2,22.5,30.25,West,270,1.6,3.8,55,0.00,,,0.00,WeatherCatV2.23B14,2016-02-06 00:20:00,
2016-02-05 19:34:00,37.2,22.5,30.25,West,270,1.6,3.8,55,0.00,,,0.00,WeatherCatV2.23B14,2016-02-06 00:34:00,